• Join FlightAware (Why Join?)
  • Login
  • US Flag 
08:54AM EDT


 

Airport Tracker/Info


-or-


 

Live Flight TrackerFlight Track Log ✈ DAL6034 ✈ 24-Apr-2013 ✈ KMHT - KLGA

Flight Track Log - Related Links

Times and Time Zones

All times are in EDT time to prevent confusion due to time zone crossing. See the DAL6034 flight status page for this flight to view local times or setup timezone preferences in your user account.

Time Position Orientation Groundspeed Altitude Reporting Facility
EDT Latitude Longitude Course Direction KTS MPH feet Rate Location/Type
06:11PM 42.9167 -71.4167 200° South 160 184 1,300  Level KA90
06:12PM 42.8833 -71.4333 200° South 167 192 2,200 2,280 Climbing KA90
06:13PM 42.9000 -71.4833 294° West 214 246 4,300 2,160 Climbing KA90
06:14PM 42.9367 -71.5553 305° West 236 272 6,500 2,220 Climbing Boston Center
06:15PM 42.9831 -71.6342 309° West 242 278 8,900 2,280 Climbing Boston Center
06:16PM 42.9692 -71.7108 256° West 230 265 11,100 1,800 Climbing Boston Center
06:17PM 42.9156 -71.8050 232° Southwest 265 305 12,500 1,440 Climbing Boston Center
06:18PM 42.8658 -71.8850 230° Southwest 300 345 14,000 1,500 Climbing Boston Center
06:19PM 42.8058 -71.9903 232° Southwest 315 362 15,600 960 Climbing Boston Center
06:20PM 42.7519 -72.0753 229° Southwest 332 382 16,000 180 Climbing Boston Center
06:21PM 42.6814 -72.1917 231° Southwest 362 417 16,000  Level Boston Center
06:22PM 42.6253 -72.2878 232° Southwest 367 422 16,000  Level Boston Center
06:23PM 42.5608 -72.3922 230° Southwest 367 422 16,000  Level Boston Center
06:24PM 42.4836 -72.5161 230° Southwest 372 428 16,000  Level Boston Center
06:25PM 42.4169 -72.6117 227° Southwest 366 421 16,000  Level Boston Center
06:26PM 42.3481 -72.7069 226° Southwest 354 407 16,000  Level Boston Center
06:27PM 42.2686 -72.8075 223° Southwest 359 413 16,000  Level Boston Center
06:28PM 42.2056 -72.8942 226° Southwest 354 407 16,000  Level Boston Center
06:29PM 42.1281 -72.9972 225° Southwest 354 407 16,000  Level Boston Center
06:30PM 42.0653 -73.0778 224° Southwest 354 407 16,000 -540 Level Boston Center
06:31PM 41.9875 -73.1775 224° Southwest 354 407 15,000 -960 Descending Boston Center
06:32PM 41.9306 -73.2550 225° Southwest 348 400 14,100 -540 Descending Boston Center
06:33PM 41.8528 -73.3486 222° Southwest 333 383 14,000 -60 Descending Boston Center
06:34PM 41.7875 -73.4314 223° Southwest 333 383 14,000 -660 Level Boston Center
06:36PM 41.6500 -73.5500 213° Southwest 329 379 12,200 -1,140 Descending New York TRACON
06:37PM 41.5833 -73.6000 209° Southwest 281 323 10,900 -1,140 Descending New York TRACON
06:39PM 41.4667 -73.7000 213° Southwest 243 280 8,900 -1,080 Descending New York TRACON
06:41PM 41.3167 -73.6667 171° South 248 285 6,600 -1,320 Descending New York TRACON
06:42PM 41.2667 -73.6500 166° South 233 268 5,100 -1,320 Descending New York TRACON
06:43PM 41.2000 -73.6333 169° South 228 262 4,000 -600 Descending New York TRACON
06:44PM 41.1333 -73.6167 169° South 223 257 4,000  Level New York TRACON
06:45PM 41.0833 -73.6500 207° Southwest 221 254 4,000  Level New York TRACON
06:46PM 41.0500 -73.7167 236° Southwest 220 253 4,000  Level New York TRACON
06:47PM 41.0333 -73.8000 255° West 222 255 4,000 -120 Level New York TRACON
06:48PM 41.0000 -73.8667 236° Southwest 221 254 3,800 -600 Descending New York TRACON
06:49PM 40.9667 -73.9333 237° Southwest 230 265 2,900 -900 Descending New York TRACON
06:50PM 40.9333 -74.0167 242° Southwest 234 269 2,000 -480 Descending New York TRACON
06:51PM 40.8833 -74.0500 207° Southwest 173 199 2,000  Level New York TRACON
06:52PM 40.8500 -74.0167 143° Southeast 169 194 2,000  Level New York TRACON